International Skating Union - Official Site

ESSENT ISU EUROPEAN SPEED SKATING CHAMPIONSHIPS 2011
January 7-9, 2011

Draw | Lap Times | Index | Classification

Referee: Jacques  DE KONING  (NED)
Starter: Jouke  VESTERLUND  (FIN)
StartTime: EndTime: Air Temp: Ice Temp: Humidity:
13:10 6℃ -4℃ 73%
Result 10000m Men
Rankings as of Jan 9 2011 3:40PM
Rank: No.: Name: Nation: Time: Behind: Points:
1 33 Ivan  SKOBREV RUS RUS 13:39.80400m - 35.74 - (35.7)
800m - 1:07.18 - (31.4)
1200m - 1:39.25 - (32.0)
1600m - 2:11.63 - (32.3)
2000m - 2:44.26 - (32.6)
2400m - 3:16.85 - (32.5)
2800m - 3:49.73 - (32.8)
3200m - 4:22.71 - (32.9)
3600m - 4:55.79 - (33.0)
4000m - 5:28.85 - (33.0)
4400m - 6:02.05 - (33.2)
4800m - 6:35.95 - (33.9)
5200m - 7:09.25 - (33.3)
5600m - 7:43.34 - (34.0)
6000m - 8:16.29 - (32.9)
6400m - 8:49.38 - (33.0)
6800m - 9:22.18 - (32.8)
7200m - 9:54.79 - (32.6)
7600m - 10:27.61 - (32.8)
8000m - 11:00.54 - (32.9)
8400m - 11:33.44 - (32.9)
8800m - 12:06.10 - (32.6)
9200m - 12:38.01 - (31.9)
9600m - 13:08.95 - (30.9)
10000m - 13:39.80 - (30.8)
40.990
2 18 Wouter  OLDE HEUVEL NED NED 13:40.18400m - 34.83 - (34.8)
800m - 1:06.41 - (31.5)
1200m - 1:38.89 - (32.4)
1600m - 2:11.00 - (32.1)
2000m - 2:43.38 - (32.3)
2400m - 3:15.75 - (32.3)
2800m - 3:48.79 - (33.0)
3200m - 4:21.33 - (32.5)
3600m - 4:54.09 - (32.7)
4000m - 5:26.99 - (32.9)
4400m - 5:59.74 - (32.7)
4800m - 6:32.18 - (32.4)
5200m - 7:04.92 - (32.7)
5600m - 7:38.10 - (33.1)
6000m - 8:10.94 - (32.8)
6400m - 8:43.79 - (32.8)
6800m - 9:17.61 - (33.8)
7200m - 9:50.63 - (33.0)
7600m - 10:23.71 - (33.0)
8000m - 10:56.32 - (32.6)
8400m - 11:29.23 - (32.9)
8800m - 12:02.34 - (33.1)
9200m - 12:35.54 - (33.2)
9600m - 13:08.23 - (32.6)
10000m - 13:40.18 - (31.9)
0.38 41.009
3 17 Jan  BLOKHUIJSEN NED NED 13:41.44400m - 34.60 - (34.6)
800m - 1:06.58 - (31.9)
1200m - 1:38.81 - (32.2)
1600m - 2:11.11 - (32.3)
2000m - 2:43.19 - (32.0)
2400m - 3:15.79 - (32.6)
2800m - 3:48.34 - (32.5)
3200m - 4:21.18 - (32.8)
3600m - 4:53.77 - (32.5)
4000m - 5:26.91 - (33.1)
4400m - 5:59.56 - (32.6)
4800m - 6:32.38 - (32.8)
5200m - 7:04.89 - (32.5)
5600m - 7:37.52 - (32.6)
6000m - 8:09.89 - (32.3)
6400m - 8:42.90 - (33.0)
6800m - 9:16.50 - (33.6)
7200m - 9:50.00 - (33.5)
7600m - 10:23.03 - (33.0)
8000m - 10:56.30 - (33.2)
8400m - 11:28.87 - (32.5)
8800m - 12:02.07 - (33.2)
9200m - 12:35.39 - (33.3)
9600m - 13:08.95 - (33.5)
10000m - 13:41.44 - (32.5)
1.64 41.072
4 20 Koen  VERWEIJ NED NED 13:47.79400m - 35.90 - (35.9)
800m - 1:07.48 - (31.5)
1200m - 1:39.90 - (32.4)
1600m - 2:12.95 - (33.0)
2000m - 2:45.12 - (32.1)
2400m - 3:17.64 - (32.5)
2800m - 3:50.54 - (32.9)
3200m - 4:23.73 - (33.1)
3600m - 4:56.75 - (33.0)
4000m - 5:29.67 - (32.9)
4400m - 6:02.78 - (33.1)
4800m - 6:36.77 - (33.9)
5200m - 7:09.90 - (33.1)
5600m - 7:44.44 - (34.5)
6000m - 8:17.29 - (32.8)
6400m - 8:50.11 - (32.8)
6800m - 9:23.24 - (33.1)
7200m - 9:56.41 - (33.1)
7600m - 10:29.46 - (33.0)
8000m - 11:02.94 - (33.4)
8400m - 11:36.46 - (33.5)
8800m - 12:09.74 - (33.2)
9200m - 12:42.69 - (32.9)
9600m - 13:15.74 - (33.0)
10000m - 13:47.79 - (32.0)
7.99 41.389
5 22 Håvard  BØKKO NOR NOR 13:51.16400m - 34.68 - (34.6)
800m - 1:06.52 - (31.8)
1200m - 1:39.03 - (32.5)
1600m - 2:11.34 - (32.3)
2000m - 2:43.89 - (32.5)
2400m - 3:16.36 - (32.4)
2800m - 3:49.19 - (32.8)
3200m - 4:21.91 - (32.7)
3600m - 4:54.93 - (33.0)
4000m - 5:27.97 - (33.0)
4400m - 6:01.17 - (33.2)
4800m - 6:34.48 - (33.3)
5200m - 7:07.42 - (32.9)
5600m - 7:40.74 - (33.3)
6000m - 8:13.75 - (33.0)
6400m - 8:46.77 - (33.0)
6800m - 9:19.89 - (33.1)
7200m - 9:53.50 - (33.6)
7600m - 10:27.11 - (33.6)
8000m - 11:00.78 - (33.6)
8400m - 11:34.67 - (33.8)
8800m - 12:08.57 - (33.9)
9200m - 12:42.61 - (34.0)
9600m - 13:16.83 - (34.2)
10000m - 13:51.16 - (34.3)
11.36 41.558
6 24 Sverre  LUNDE PEDERSEN NOR NOR 14:16.16400m - 36.42 - (36.4)
800m - 1:09.27 - (32.8)
1200m - 1:42.61 - (33.3)
1600m - 2:16.30 - (33.6)
2000m - 2:49.68 - (33.3)
2400m - 3:23.32 - (33.6)
2800m - 3:56.80 - (33.4)
3200m - 4:30.55 - (33.7)
3600m - 5:04.22 - (33.6)
4000m - 5:38.19 - (33.9)
4400m - 6:12.36 - (34.1)
4800m - 6:46.66 - (34.3)
5200m - 7:20.48 - (33.8)
5600m - 7:54.67 - (34.1)
6000m - 8:28.85 - (34.1)
6400m - 9:03.06 - (34.2)
6800m - 9:37.51 - (34.4)
7200m - 10:12.00 - (34.4)
7600m - 10:46.73 - (34.7)
8000m - 11:21.76 - (35.0)
8400m - 11:56.40 - (34.6)
8800m - 12:31.16 - (34.7)
9200m - 13:06.22 - (35.0)
9600m - 13:41.07 - (34.8)
10000m - 14:16.16 - (35.0)
36.36 42.808
7 7 Alexis  CONTIN FRA FRA 14:16.62400m - 37.11 - (37.1)
800m - 1:11.29 - (34.1)
1200m - 1:45.83 - (34.5)
1600m - 2:19.91 - (34.0)
2000m - 2:53.89 - (33.9)
2400m - 3:28.47 - (34.5)
2800m - 4:02.97 - (34.5)
3200m - 4:37.57 - (34.6)
3600m - 5:11.49 - (33.9)
4000m - 5:45.97 - (34.4)
4400m - 6:20.78 - (34.8)
4800m - 6:55.78 - (35.0)
5200m - 7:30.54 - (34.7)
5600m - 8:04.69 - (34.1)
6000m - 8:38.89 - (34.2)
6400m - 9:13.11 - (34.2)
6800m - 9:47.28 - (34.1)
7200m - 10:21.62 - (34.3)
7600m - 10:55.62 - (34.0)
8000m - 11:29.65 - (34.0)
8400m - 12:03.59 - (33.9)
8800m - 12:37.22 - (33.6)
9200m - 13:10.89 - (33.6)
9600m - 13:44.13 - (33.2)
10000m - 14:16.62 - (32.4)
36.82 42.831
8 23 Henrik  CHRISTIANSEN NOR NOR 14:17.24400m - 35.95 - (35.9)
800m - 1:08.16 - (32.2)
1200m - 1:41.15 - (32.9)
1600m - 2:14.58 - (33.4)
2000m - 2:47.93 - (33.3)
2400m - 3:21.11 - (33.1)
2800m - 3:54.82 - (33.7)
3200m - 4:28.82 - (34.0)
3600m - 5:02.70 - (33.8)
4000m - 5:36.86 - (34.1)
4400m - 6:10.92 - (34.0)
4800m - 6:44.86 - (33.9)
5200m - 7:19.42 - (34.5)
5600m - 7:54.10 - (34.6)
6000m - 8:28.39 - (34.2)
6400m - 9:02.96 - (34.5)
6800m - 9:38.40 - (35.4)
7200m - 10:13.83 - (35.4)
7600m - 10:48.93 - (35.1)
8000m - 11:23.76 - (34.8)
8400m - 11:58.58 - (34.8)
8800m - 12:33.50 - (34.9)
9200m - 13:08.22 - (34.7)
9600m - 13:42.91 - (34.6)
10000m - 14:17.24 - (34.3)
37.44 42.862
9 32 Pavel  BAYNOV RUS RUS 14:25.72400m - 37.43 - (37.4)
800m - 1:11.65 - (34.2)
1200m - 1:46.38 - (34.7)
1600m - 2:20.47 - (34.0)
2000m - 2:54.13 - (33.6)
2400m - 3:27.70 - (33.5)
2800m - 4:02.15 - (34.4)
3200m - 4:36.36 - (34.2)
3600m - 5:10.95 - (34.5)
4000m - 5:45.20 - (34.2)
4400m - 6:19.37 - (34.1)
4800m - 6:53.68 - (34.3)
5200m - 7:28.22 - (34.5)
5600m - 8:03.02 - (34.8)
6000m - 8:37.77 - (34.7)
6400m - 9:12.65 - (34.8)
6800m - 9:47.53 - (34.8)
7200m - 10:22.22 - (34.6)
7600m - 10:57.19 - (34.9)
8000m - 11:31.93 - (34.7)
8400m - 12:06.69 - (34.7)
8800m - 12:41.29 - (34.6)
9200m - 13:16.28 - (34.9)
9600m - 13:51.29 - (35.0)
10000m - 14:25.72 - (34.4)
45.92 43.286
10 29 Konrad  NIEDZWIEDZKI POL POL 14:30.75400m - 37.47 - (37.4)
800m - 1:11.79 - (34.3)
1200m - 1:46.51 - (34.7)
1600m - 2:21.15 - (34.6)
2000m - 2:55.24 - (34.0)
2400m - 3:29.23 - (33.9)
2800m - 4:03.64 - (34.4)
3200m - 4:37.86 - (34.2)
3600m - 5:12.62 - (34.7)
4000m - 5:47.32 - (34.7)
4400m - 6:22.37 - (35.0)
4800m - 6:57.48 - (35.1)
5200m - 7:32.72 - (35.2)
5600m - 8:08.03 - (35.3)
6000m - 8:43.27 - (35.2)
6400m - 9:18.46 - (35.1)
6800m - 9:53.34 - (34.8)
7200m - 10:28.28 - (34.9)
7600m - 11:03.20 - (34.9)
8000m - 11:38.07 - (34.8)
8400m - 12:12.72 - (34.6)
8800m - 12:47.37 - (34.6)
9200m - 13:22.70 - (35.3)
9600m - 13:57.23 - (34.5)
10000m - 14:30.75 - (33.5)
50.95 43.537
11 19 Renz  ROTTEVEEL NED NED 14:33.83400m - 37.14 - (37.1)
800m - 1:10.76 - (33.6)
1200m - 1:45.64 - (34.8)
1600m - 2:19.82 - (34.1)
2000m - 2:53.87 - (34.0)
2400m - 3:28.62 - (34.7)
2800m - 4:03.50 - (34.8)
3200m - 4:37.78 - (34.2)
3600m - 5:12.47 - (34.6)
4000m - 5:46.99 - (34.5)
4400m - 6:22.13 - (35.1)
4800m - 6:57.42 - (35.2)
5200m - 7:32.94 - (35.5)
5600m - 8:08.10 - (35.1)
6000m - 8:43.51 - (35.4)
6400m - 9:18.69 - (35.1)
6800m - 9:54.21 - (35.5)
7200m - 10:29.83 - (35.6)
7600m - 11:05.41 - (35.5)
8000m - 11:40.39 - (34.9)
8400m - 12:15.13 - (34.7)
8800m - 12:49.81 - (34.6)
9200m - 13:24.45 - (34.6)
9600m - 13:59.15 - (34.7)
10000m - 14:33.83 - (34.6)
54.03 43.691
12 13 Enrico  FABRIS ITA ITA DNS -